Date String (YYYY-MM-DD hh:mm:ss) UTC,Instrument flags,Ambient pressure (hPa),Sample flow (lpm),Bypass flow (lpm),Sample temperature (°C),Ambient temperature (°C),ASC tube jacket temperature (°C),LED temperature (°C),Box temperature (°C),Sample RH (%),Span deviation,Mass concentration (μg/m³),Mass concentration (μg/m³),Mass concentration (μg/m³)
DateTimeUTC,F1_M11,P_M11,Q1_M11,Q2_M11,T1_M11,T2_M11,T3_M11,T4_M11,T5_M11,U1_M11,ZSPAN_M11,X0_M11,X2_M11,X1_M11
2022-05-20 03:00:00,,0813.1,5.00,0.00,29.7,28.7,00.0,38.5,31.6,15.4,0000.0,0018.40,0004.36,0002.28
2022-05-20 03:01:00,,0813.2,5.00,0.00,29.7,28.7,00.0,38.5,31.6,15.4,0000.0,0018.75,0004.32,0002.27
2022-05-20 03:02:00,,0813.2,5.00,0.00,29.7,28.8,00.0,38.5,31.6,15.4,0000.0,0017.81,0004.29,0002.26
2022-05-20 03:03:00,,0813.3,5.00,0.00,29.7,28.8,00.0,38.5,31.6,15.4,0000.0,0017.98,0004.32,0002.27
2022-05-20 03:04:00,,0813.3,4.99,0.00,29.7,28.8,00.0,38.6,31.7,15.3,0000.0,0017.14,0004.31,0002.26
2022-05-20 03:05:00,,0813.4,5.00,0.00,29.8,28.8,00.0,38.6,31.7,15.3,0000.0,0015.96,0004.30,0002.26
2022-05-20 03:06:00,,0813.5,5.01,0.00,29.8,28.9,00.0,38.6,31.7,15.3,0000.0,0015.18,0004.28,0002.25
2022-05-20 03:07:00,,0813.6,4.99,0.00,29.8,28.9,00.0,38.6,31.7,15.3,0000.0,0015.48,0004.23,0002.23
2022-05-20 03:08:00,,0813.9,5.00,0.00,29.8,28.9,00.0,38.6,31.7,15.3,0000.0,0015.14,0004.20,0002.22
2022-05-20 03:09:00,,0813.9,5.00,0.00,29.8,28.9,00.0,38.6,31.8,15.3,0000.0,0015.75,0004.21,0002.22
2022-05-20 03:10:00,,0813.6,5.01,0.00,29.9,28.9,00.0,38.7,31.7,15.3,0000.0,0016.24,0004.20,0002.21
2022-05-20 03:11:00,,0813.6,5.01,0.00,29.9,29.0,00.0,38.7,31.7,15.2,0000.0,0015.48,0004.22,0002.19
2022-05-20 03:12:00,,0813.5,5.00,0.00,29.9,29.0,00.0,38.7,31.7,15.2,0000.0,0015.00,0004.23,0002.18
2022-05-20 03:13:00,,0813.6,5.00,0.00,29.9,29.0,00.0,38.7,31.7,15.1,0000.0,0015.16,0004.22,0002.17
2022-05-20 03:14:00,,0813.6,5.00,0.00,29.9,29.0,00.0,38.7,31.8,15.1,0000.0,0014.34,0004.15,0002.13
2022-05-20 03:15:00,,0814.1,5.00,0.00,29.9,29.0,00.0,38.8,31.8,15.0,0000.0,0014.49,0004.10,0002.09
2022-05-20 03:16:00,,0814.2,5.00,0.00,29.9,29.0,00.0,38.8,31.8,14.9,0000.0,0014.65,0004.04,0002.06
2022-05-20 03:17:00,,0814.2,5.00,0.00,29.9,29.0,00.0,38.8,31.8,14.8,0000.0,0015.45,0004.00,0002.02
2022-05-20 03:18:00,,0814.2,5.00,0.00,30.0,29.0,00.0,38.8,31.8,14.8,0000.0,0015.77,0004.07,0002.01
2022-05-20 03:19:00,,0814.2,4.99,0.00,30.0,29.0,00.0,38.8,31.8,14.8,0000.0,0017.63,0004.11,0002.00
2022-05-20 03:20:00,,0813.9,5.00,0.00,30.0,29.0,00.0,38.8,31.8,14.8,0000.0,0017.84,0004.12,0001.99
2022-05-20 03:21:00,,0814.0,5.00,0.00,30.0,29.0,00.0,38.8,31.8,14.8,0000.0,0017.50,0004.14,0001.96
2022-05-20 03:22:00,,0814.0,5.00,0.00,30.0,29.0,00.0,38.9,31.9,14.8,0000.0,0018.87,0004.16,0001.94
2022-05-20 03:23:00,,0814.1,5.00,0.00,30.0,29.0,00.0,38.9,31.9,14.8,0000.0,0019.09,0004.21,0001.93
2022-05-20 03:24:00,,0814.3,5.00,0.00,30.0,29.0,00.0,38.9,31.9,14.7,0000.0,0018.90,0004.24,0001.91
2022-05-20 03:25:00,,0814.2,5.00,0.00,30.0,29.0,00.0,38.9,31.9,14.7,0000.0,0019.46,0004.28,0001.89
2022-05-20 03:26:00,,0814.3,4.99,0.00,30.0,29.0,00.0,38.9,31.9,14.6,0000.0,0021.01,0004.26,0001.87
2022-05-20 03:27:00,,0814.1,5.00,0.00,30.0,29.0,00.0,38.9,31.9,14.6,0000.0,0021.41,0004.26,0001.84
2022-05-20 03:28:00,,0814.1,5.00,0.00,30.0,29.0,00.0,38.9,31.9,14.6,0000.0,0020.18,0004.27,0001.83
2022-05-20 03:29:00,,0814.6,5.00,0.00,30.0,29.0,00.0,38.9,31.9,14.5,0000.0,0019.35,0004.27,0001.83
2022-05-20 03:30:00,,0814.4,5.00,0.00,30.0,29.0,00.0,38.9,31.9,14.5,0000.0,0017.34,0004.21,0001.83
2022-05-20 03:31:00,,0814.4,5.00,0.00,30.1,29.0,00.0,38.9,31.9,14.4,0000.0,0016.72,0004.12,0001.81
2022-05-20 03:32:00,,0814.3,4.99,0.00,30.0,29.0,00.0,39.0,31.9,14.3,0000.0,0016.50,0004.11,0001.82
2022-05-20 03:33:00,,0814.4,5.00,0.00,30.0,29.0,00.0,39.0,31.8,14.4,0000.0,0016.15,0004.08,0001.83
2022-05-20 03:34:00,,0814.3,5.00,0.00,30.0,29.0,00.0,39.0,31.8,14.4,0000.0,0016.24,0004.00,0001.83
2022-05-20 03:35:00,,0814.3,5.00,0.00,30.0,29.0,00.0,39.0,31.8,14.3,0000.0,0016.94,0003.93,0001.82
2022-05-20 03:36:00,,0814.4,5.00,0.00,30.0,29.0,00.0,39.0,31.8,14.3,0000.0,0017.52,0003.90,0001.81
2022-05-20 03:37:00,,0814.4,5.00,0.00,30.0,29.0,00.0,39.0,31.8,14.3,0000.0,0015.64,0003.91,0001.82
2022-05-20 03:38:00,,0814.4,5.00,0.00,30.0,29.0,00.0,39.0,31.9,14.3,0000.0,0015.25,0003.91,0001.85
2022-05-20 03:39:00,,0814.4,4.99,0.00,30.0,29.0,00.0,39.0,31.9,14.3,0000.0,0015.88,0003.88,0001.85
2022-05-20 03:40:00,,0814.4,5.00,0.00,30.1,29.0,00.0,39.0,31.9,14.3,0000.0,0015.57,0003.81,0001.85
2022-05-20 03:41:00,,0814.7,5.00,0.00,30.1,29.0,00.0,39.0,31.9,14.3,0000.0,0015.83,0003.77,0001.84
2022-05-20 03:42:00,,0814.6,5.00,0.00,30.1,29.0,00.0,39.0,31.9,14.3,0000.0,0017.88,0003.80,0001.85
2022-05-20 03:43:00,,0814.7,5.01,0.00,30.1,29.0,00.0,39.0,31.9,14.2,0000.0,0018.83,0003.82,0001.86
2022-05-20 03:44:00,,0814.4,4.99,0.00,30.1,29.0,00.0,39.0,31.9,14.2,0000.0,0018.52,0003.81,0001.85
2022-05-20 03:45:00,,0814.4,5.01,0.00,30.1,29.0,00.0,39.0,31.9,14.2,0000.0,0019.15,0003.81,0001.87
2022-05-20 03:46:00,,0814.4,5.00,0.00,30.1,29.0,00.0,39.0,31.9,14.2,0000.0,0018.79,0003.82,0001.88
2022-05-20 03:47:00,,0814.4,5.00,0.00,30.1,29.0,00.0,39.0,31.8,14.2,0000.0,0017.64,0003.80,0001.90
2022-05-20 03:48:00,,0814.6,5.01,0.00,30.0,29.0,00.0,39.0,31.7,14.2,0000.0,0017.75,0003.81,0001.92
2022-05-20 03:49:00,,0814.6,5.01,0.00,30.0,28.9,00.0,39.0,31.7,14.1,0000.0,0017.71,0003.81,0001.92
2022-05-20 03:50:00,,0814.5,4.99,0.00,30.0,28.9,00.0,39.0,31.7,14.1,0000.0,0017.23,0003.87,0001.93
2022-05-20 03:51:00,,0814.4,5.00,0.00,30.0,28.8,00.0,39.0,31.7,14.1,0000.0,0018.30,0003.93,0001.94
2022-05-20 03:52:00,,0814.3,4.99,0.00,29.9,28.8,00.0,39.0,31.6,14.1,0000.0,0020.23,0004.00,0001.95
2022-05-20 03:53:00,,0814.4,5.00,0.00,29.9,28.7,00.0,39.0,31.6,14.2,0000.0,0018.66,0004.04,0001.96
2022-05-20 03:54:00,,0814.6,5.01,0.00,29.9,28.7,00.0,39.0,31.6,14.1,0000.0,0018.09,0004.05,0001.96
2022-05-20 03:55:00,,0814.5,5.01,0.00,29.9,28.7,00.0,39.0,31.5,14.1,0000.0,0017.45,0004.04,0001.95
2022-05-20 03:56:00,,0814.9,5.01,0.00,29.8,28.6,00.0,38.9,31.5,14.1,0000.0,0016.34,0004.04,0001.94
2022-05-20 03:57:00,,0814.8,5.00,0.00,29.8,28.6,00.0,38.9,31.5,14.1,0000.0,0016.71,0004.05,0001.95
2022-05-20 03:58:00,,0814.8,5.01,0.00,29.8,28.6,00.0,38.9,31.5,14.0,0000.0,0017.99,0004.08,0001.93
2022-05-20 03:59:00,,0814.9,4.99,0.00,29.8,28.6,00.0,38.9,31.5,14.0,0000.0,0018.32,0004.04,0001.91
